Weather History for Vancouver, BC

Change the Weather History Date:

Sunday, March 31, 2013

  Actual Average Record
Temperature  
Mean Temperature 50 °F -  
Max Temperature 60 °F 48 °F 60 °F (2013)
Min Temperature 39 °F 37 °F 35 °F (1999)
Degree Days  
Heating Degree Days 16    
Moisture  
Dew Point 44 °F    
Average Humidity 75    
Maximum Humidity 87    
Minimum Humidity 51    
Precipitation  
Precipitation 0.00 in - - ()
Sea Level Pressure  
Sea Level Pressure 30.03 in    
Wind  
Wind Speed 5 mph ()    
Max Wind Speed 13 mph    
Max Gust Speed -    
Visibility 19.8 miles    
Events      
Averages and records for this station are not official NWS values.
T = Trace of Precipitation, MM = Missing Value Source: Averaged Metar Reports

Daily Weather History Graph

Daily Weather History Graph

Search for Another Location

Airport:

Trip Planner

Search our weather history database for the weather conditions in past years. The results will help you decide how hot, cold, wet, or windy it might be!

Date:

Astronomy

Mar. 31, 2013 Rise Set
Actual Time 6:51 AM PDT 7:42 PM PDT
Civil Twilight 6:19 AM PDT 8:15 PM PDT
Nautical Twilight 5:40 AM PDT 8:53 PM PDT
Astronomical Twilight 5:00 AM PDT 9:34 PM PDT
Moon 12:16 AM PDT (3/31) 9:21 AM PDT (3/31)
Length of Visible Light 13h 56m
Length of Day
12h 51m
Waning Gibbous, 76% of the Moon is Illuminated
Mar 31
Waning Gibbous
Apr 2
Last Quarter
Apr 10
New
Apr 18
First Quarter
Apr 25
Full

Hourly Weather History & Observations

Time (PDT) Temp. Windchill Dew Point Humidity Pressure Visibility Wind Dir Wind Speed Gust Speed Precip Events Conditions
1:00 AM 48.2 °F - 44.6 °F 87% 30.11 in 20.0 mi North 3.5 mph - N/A   Partly Cloudy
2:00 AM 46.4 °F 45.2 °F 39.2 °F 76% 30.11 in 20.0 mi NE 3.5 mph - N/A   Partly Cloudy
3:00 AM 44.6 °F 41.4 °F 39.2 °F 81% 30.10 in 20.0 mi NNW 5.8 mph - N/A   Partly Cloudy
4:00 AM 44.6 °F - 39.2 °F 81% 30.08 in 20.0 mi Calm Calm - N/A   Clear
5:00 AM 41 °F - 36 °F 77% 30.08 in 19 mi Calm Calm - -  
5:00 AM 41.0 °F - 35.6 °F 81% 30.08 in 20.0 mi Calm Calm - N/A   Clear
6:00 AM 44.6 °F 43.1 °F 39.2 °F 81% 30.07 in 20.0 mi NNW 3.5 mph - N/A   Clear
7:00 AM 42.8 °F 41.1 °F 39.2 °F 87% 30.08 in 30.0 mi North 3.5 mph - N/A   Clear
8:00 AM 44.6 °F 42.2 °F 41.0 °F 87% 30.08 in 30.0 mi North 4.6 mph - N/A   Clear
9:00 AM 50.0 °F - 46.4 °F 87% 30.07 in 30.0 mi WNW 10.4 mph - N/A   Partly Cloudy
10:00 AM 51.8 °F - 44.6 °F 76% 30.07 in 30.0 mi NW 11.5 mph - N/A   Partly Cloudy
11:00 AM 53 °F - 46 °F 71% 30.07 in 28 mi WNW 11.5 mph - -   Clear
11:00 AM 53.6 °F - 46.4 °F 77% 30.07 in 30.0 mi WNW 11.5 mph - N/A   Partly Cloudy
12:00 PM 55.4 °F - 48.2 °F 77% 30.06 in 30.0 mi WNW 11.5 mph - N/A   Partly Cloudy
1:00 PM 55.4 °F - 46.4 °F 72% 30.05 in 30.0 mi WNW 12.7 mph - N/A   Partly Cloudy
2:00 PM 57.2 °F - 46.4 °F 67% 30.03 in 30.0 mi West 10.4 mph - N/A   Partly Cloudy
3:00 PM 59.0 °F - 44.6 °F 59% 30.01 in 30.0 mi WNW 9.2 mph - N/A   Partly Cloudy
4:00 PM 59.0 °F - 46.4 °F 63% 29.99 in 30.0 mi WNW 8.1 mph - N/A   Partly Cloudy
5:00 PM 59 °F - 46 °F 51% 29.97 in 28 mi WNW 9.2 mph - -   Clear
5:00 PM 59.0 °F - 46.4 °F 63% 29.97 in 30.0 mi WNW 9.2 mph - N/A   Partly Cloudy
6:00 PM 57.2 °F - 44.6 °F 63% 29.95 in 30.0 mi WNW 6.9 mph - N/A   Clear
7:00 PM 55.4 °F - 44.6 °F 67% 29.94 in 30.0 mi WNW 5.8 mph - N/A   Partly Cloudy
8:00 PM 53.6 °F - 46.4 °F 77% 29.93 in 30.0 mi WSW 4.6 mph - N/A   Partly Cloudy
9:00 PM 53.6 °F - 44.6 °F 72% 29.94 in 20.0 mi WSW 5.8 mph - N/A   Clear
10:00 PM 50.0 °F - 42.8 °F 76% 29.94 in 20.0 mi North 3.5 mph - N/A   Clear
11:00 PM 51 °F - 46 °F 77% 29.95 in 19 mi SSW 3.5 mph - -  
11:00 PM 51.8 °F - 46.4 °F 82% 29.95 in 20.0 mi South 3.5 mph - N/A   Clear